Location: Unspecified
(54.1780°N, 0.0000°E)
Time: 03:54:59
(UTC+00:00)

Altair - Pass Details

Date: 18 June 2019
Orbit: 1501 x 1683 km, 47.2° (Epoch: 17 July)

Event Time Altitude Azimuth Distance (km) Brightness Sun altitude
Rises 04:48:09 0° 283° (WNW) 4,910 9.7 8.9°
Reaches altitude 10° 04:53:35 10° 260° (W) 3,938 9.1 9.6°
Maximum altitude 04:57:45 13° 235° (SW) 3,672 8.9 10.1°
Drops below altitude 10° 05:01:57 10° 210° (SSW) 3,940 9.2 10.7°
Sets 05:07:27 0° 186° (S) 4,915 9.8 11.4°
